sat.trackr.live / text

‹ back to catalog

STARLINK-31432

NORAD 59932 · 2024-106L

PAYLOAD ACTIVE UNKNOWN

§ Identity

Operator
Country
US
Launch date
2024-06-01
Launch site
AFETR
Launch vehicle
Mass (kg)
RCS (m²)

Purposes: comms

External: N2YO · Heavens-Above · Gunter

§ Orbital elements

Epoch: 2026-05-25T00:14:26.858112Z

Period
94.27 min
Inclination
42.9983°
Eccentricity
0.0002455
Mean motion
15.27537203 rev/d
Perigee alt
481.5 km
Apogee alt
484.9 km
Semi-major
6,861.3 km
B*
-4.3864e-3
RAAN
261.6222°
Arg perigee
279.3408°
Mean anomaly
80.7166°
Rev number
11,218

§ Raw data

STARLINK-314321 59932U 24106L   26145.01003308 -.00118907  00000+0 -43864-2 0  99982 59932  42.9983 261.6222 0002455 279.3408  80.7166 15.27537203112181

JSON: /api/v1/satellites/59932 · /tle

For live sub-satellite position, see the globe view (requires WebGL).

§ Visibility from observer

Set your observer location to see the next 7 days of passes ≥ 10°. The values pass through the URL so the page stays shareable.

No JS? Fill the form by hand. The geolocation button needs JavaScript.